KE0RKB Weather Reports


Display with metric or nautical units.
time (UTC)temp
F
wind
direction
speed
MPH
gust
MPH
rain 1hr
in
rain 24hr
in
rain mn
in
humidity
%
barometer
mb
20260505010048 55 1 13.0 19.0 0.00 0.00 0.00 55 1010.7
20260505004536 57 1 8.0 18.0 0.00 0.00 0.00 46 1010.4
20260505003041 59 360 11.0 21.0 0.00 0.00 0.00 38 1010.1
20260505001542 60 1 14.0 20.0 0.00 0.00 0.00 37 1009.8
20260505000040 61 1 18.0 23.0 0.00 0.00 0.00 37 1009.8
20260504234538 62 1 12.0 23.0 0.00 0.00 0.00 34 1009.8
20260504233044 62 1 16.0 22.0 0.00 0.00 0.00 34 1009.7
20260504231543 63 1 17.0 23.0 0.00 0.00 0.00 33 1009.6
20260504230041 64 360 15.0 21.0 0.00 0.00 0.00 32 1009.4
20260504224541 63 1 17.0 28.0 0.00 0.00 0.00 33 1009.2
20260504223048 63 1 22.0 30.0 0.00 0.00 0.00 33 1009.0
20260504221544 64 360 22.0 31.0 0.00 0.00 0.00 31 1008.7
20260504220107 66 1 16.0 26.0 0.00 0.00 0.00 27 1008.4
20260504214551 67 1 19.0 28.0 0.00 0.00 0.00 25 1008.3
20260504213054 69 1 11.0 17.0 0.00 0.00 0.00 22 1008.8
20260504211544 67 1 15.0 21.0 0.00 0.00 0.00 23 1008.9
20260504210047 68 1 15.0 21.0 0.00 0.00 0.00 22 1008.9
20260504204543 70 1 12.0 18.0 0.00 0.00 0.00 19 1008.9
20260504203041 71 1 7.0 20.0 0.00 0.00 0.00 19 1008.9
20260504201541 70 1 9.0 21.0 0.00 0.00 0.00 19 1009.0
20260504200054 68 1 9.0 18.0 0.00 0.00 0.00 19 1009.0
20260504194546 70 1 10.0 19.0 0.00 0.00 0.00 19 1009.1
20260504193045 70 1 9.0 16.0 0.00 0.00 0.00 19 1008.9
20260504191553 69 1 8.0 15.0 0.00 0.00 0.00 20 1008.9
20260504190050 70 1 6.0 12.0 0.00 0.00 0.00 21 1009.0
20260504184552 70 1 10.0 17.0 0.00 0.00 0.00 19 1009.1
20260504183050 71 1 9.0 18.0 0.00 0.00 0.00 20 1009.0
20260504181550 71 1 6.0 15.0 0.00 0.00 0.00 18 1009.2
20260504180044 72 1 3.0 16.0 0.00 0.00 0.00 20 1009.5
20260504174548 71 1 6.0 20.0 0.00 0.00 0.00 19 1009.9
20260504173043 69 1 9.0 17.0 0.00 0.00 0.00 21 1010.0
20260504171542 71 1 11.0 19.0 0.00 0.00 0.00 21 1010.2
20260504081547 50 1 7.0 11.0 0.00 0.00 0.00 44 1011.9
20260504044553 61 1 5.0 9.0 0.00 0.00 0.00 26 1012.3
20260504043046 61 1 7.0 11.0 0.00 0.00 0.00 25 1012.4
20260504041547 62 1 6.0 11.0 0.00 0.00 0.00 25 1012.5
20260504034556 62 1 7.0 12.0 0.00 0.00 0.00 26 1012.7
20260504033110 62 1 3.0 8.0 0.00 0.00 0.00 26 1012.9
20260504031541 63 1 3.0 14.0 0.00 0.00 0.00 25 1013.1
20260504030048 63 1 8.0 17.0 0.00 0.00 0.00 24 1013.1
20260504024545 62 1 8.0 13.0 0.00 0.00 0.00 25 1013.1
20260504023058 62 1 7.0 13.0 0.00 0.00 0.00 26 1013.2
20260504021548 61 1 10.0 14.0 0.00 0.00 0.00 28 1013.2
20260504020058 61 1 6.0 12.0 0.00 0.00 0.00 28 1012.9
20260504014552 62 1 10.0 17.0 0.00 0.00 0.00 27 1013.1
20260504013051 63 1 8.0 11.0 0.00 0.00 0.00 26 1013.1
20260504011551 63 1 10.0 14.0 0.00 0.00 0.00 26 1013.3